This is the latest recevied weather packets stored in our database for station/object W4SMH. If no packets are shown the sender has not sent any weather packets the latest 10 day(s).
| Time | Temp. | Humidity | Pressure | Rain* | Wind** | Luminosity | Snow |
|---|---|---|---|---|---|---|---|
| 1777383418 | 11.11° C | 76% | 1009 hPa | 0 mm | - | 243 W/m² | - |
| 1777383350 | 11.11° C | 76% | 1009 hPa | 0 mm | - | 155 W/m² | - |
| 1777382331 | 10.56° C | 77% | 1008.5 hPa | 0 mm | - | 218 W/m² | - |
| 1777381675 | 10.56° C | 78% | 1008.2 hPa | 0 mm | - | 142 W/m² | - |
| 1777381481 | 10.56° C | 78% | 1008.1 hPa | 0 mm | - | 163 W/m² | - |
| 1777381422 | 10.56° C | 78% | 1008.1 hPa | 0 mm | - | 139 W/m² | - |
| 1777381165 | 10.56° C | 79% | 1007.8 hPa | 0 mm | - | 149 W/m² | - |
| 1777380936 | 10.56° C | 79% | 1007.8 hPa | 0 mm | - | 148 W/m² | - |
| 1777380868 | 10.56° C | 80% | 1007.8 hPa | 0 mm | - | 125 W/m² | - |
| 1777380802 | 10.56° C | 80% | 1007.6 hPa | 0 mm | - | 120 W/m² | - |
| 1777379463 | 10.56° C | 81% | 1007.3 hPa | 0 mm | - | 39 W/m² | - |
| 1777378816 | 5° C | 90% | 1016.4 hPa | 0 mm | - | 0 W/m² | - |
| 1777378812 | 5° C | 90% | 1016.3 hPa | 0 mm | - | 0 W/m² | - |
| 1777378674 | 10.56° C | 81% | 1006.8 hPa | 0 mm | - | 33 W/m² | - |
| 1777378483 | 5° C | 90% | 1015.9 hPa | 0 mm | - | 0 W/m² | - |
| 1777378231 | 10.56° C | 81% | 1006.8 hPa | 0 mm | - | 35 W/m² | - |
| 1777378133 | 10.56° C | 81% | 1006.6 hPa | 0 mm | - | 33 W/m² | - |
| 1777377856 | 10.56° C | 81% | 1006.5 hPa | 0 mm | - | 30 W/m² | - |
| 1777377796 | 10.56° C | 81% | 1006.5 hPa | 0 mm | - | 32 W/m² | - |
| 1777377550 | 10.56° C | 81% | 1006.3 hPa | 0 mm | - | 25 W/m² | - |
| 1777376962 | 10.56° C | 82% | 1006.3 hPa | 0 mm | - | 23 W/m² | - |
| 1777376930 | 10.56° C | 82% | 1006 hPa | 0 mm | - | 21 W/m² | - |
| 1777376400 | 10.56° C | 82% | 1006 hPa | 0 mm | - | 18 W/m² | - |
| 1777376300 | 10.56° C | 82% | 1005.9 hPa | 0 mm | - | 18 W/m² | - |
| 1777376272 | 10.56° C | 82% | 1005.9 hPa | 0 mm | - | 16 W/m² | - |
* Rain latest hour (hover to see other rain measurements)
** Current wind speed in m/s (hover to see current wind gust speed)